,,,PA_Meas_PMT16A,,PR_Meas_QMR101_102,,RH_Meas_QMH101,,SR_Meas_QMS101,,TA_Meas_QMH101,,GenWind,,GenWind,
date,time,status,PA,status,PR,status,RH,status,SR,status,TA,status,DirAvg,status,SpdAvg,
2012-03-13, 00:00:04,VALID,1004.74,VALID,0,VALID,94.1099,VALID,0,VALID,23.9159,VALID,352,VALID,0.766406,
2012-03-13, 00:01:04,VALID,1004.73,VALID,0,VALID,94.1328,VALID,0.0815089,VALID,23.9353,VALID,1,VALID,0.592578,
2012-03-13, 00:02:04,VALID,1004.73,VALID,0,VALID,94.0794,VALID,0,VALID,23.8946,VALID,350,VALID,1.44375,
2012-03-13, 00:03:04,VALID,1004.74,VALID,0,VALID,94.1022,VALID,0,VALID,23.9371,VALID,356,VALID,0.848437,
2012-03-13, 00:04:04,VALID,1004.7,VALID,0,VALID,94.087,VALID,0,VALID,23.8946,VALID,347,VALID,0.717188,
2012-03-13, 00:05:04,VALID,1004.69,VALID,0,VALID,94.0946,VALID,0,VALID,23.9177,VALID,352,VALID,1.38242,
2012-03-13, 00:06:04,VALID,1004.67,VALID,0,VALID,94.0565,VALID,0,VALID,23.9371,VALID,340,VALID,0.954297,
2012-03-13, 00:07:04,VALID,1004.66,VALID,0,VALID,94.0946,VALID,0,VALID,23.9159,VALID,1,VALID,0.512891,
2012-03-13, 00:08:04,VALID,1004.64,VALID,0,VALID,94.0794,VALID,0,VALID,23.9371,VALID,357,VALID,0.543359,
2012-03-13, 00:09:04,VALID,1004.63,VALID,0,VALID,94.0794,VALID,0.0815089,VALID,23.9159,VALID,351,VALID,0.796875,
2012-03-13, 00:10:04,VALID,1004.66,VALID,0,VALID,94.0717,VALID,0,VALID,23.9159,VALID,359,VALID,1.34805,
2012-03-13, 00:11:04,VALID,1004.66,VALID,0,VALID,94.0946,VALID,0,VALID,23.8964,VALID,353,VALID,0.950781,
2012-03-13, 00:12:04,VALID,1004.68,VALID,0,VALID,94.087,VALID,0,VALID,23.9159,VALID,7,VALID,1.06992,
2012-03-13, 00:13:04,VALID,1004.65,VALID,0,VALID,94.1099,VALID,0,VALID,23.8964,VALID,347,VALID,0.682813,
2012-03-13, 00:14:04,VALID,1004.67,VALID,0,VALID,94.1022,VALID,0,VALID,23.8964,VALID,352,VALID,0.985547,
2012-03-13, 00:15:04,VALID,1004.63,VALID,0,VALID,94.148,VALID,0,VALID,23.8769,VALID,349,VALID,0.69375,
2012-03-13, 00:16:04,VALID,1004.66,VALID,0,VALID,94.1404,VALID,0,VALID,23.8982,VALID,351,VALID,1.02891,
2012-03-13, 00:17:04,VALID,1004.62,VALID,0,VALID,94.1404,VALID,0,VALID,23.8982,VALID,344,VALID,1.09258,
2012-03-13, 00:18:04,VALID,1004.6,VALID,0,VALID,94.1556,VALID,0,VALID,23.8769,VALID,352,VALID,0.864062,
2012-03-13, 00:19:04,VALID,1004.59,VALID,0,VALID,94.1709,VALID,0,VALID,23.8982,VALID,351,VALID,1.02773,
2012-03-13, 00:20:04,VALID,1004.56,VALID,0,VALID,94.1556,VALID,0,VALID,23.8982,VALID,359,VALID,0.75,
2012-03-13, 00:21:04,VALID,1004.57,VALID,0,VALID,94.148,VALID,0,VALID,23.8982,VALID,352,VALID,1.02617,
2012-03-13, 00:22:04,VALID,1004.55,VALID,0,VALID,94.1862,VALID,0,VALID,23.8769,VALID,358,VALID,0.536328,
2012-03-13, 00:23:04,VALID,1004.53,VALID,0,VALID,94.1862,VALID,0,VALID,23.8769,VALID,11,VALID,0.657812,
2012-03-13, 00:24:04,VALID,1004.52,VALID,0,VALID,94.2014,VALID,0,VALID,23.8769,VALID,1,VALID,0.675,
2012-03-13, 00:25:04,VALID,1004.53,VALID,0,VALID,94.2167,VALID,0,VALID,23.8575,VALID,351,VALID,0.769141,
2012-03-13, 00:26:04,VALID,1004.49,VALID,0,VALID,94.1862,VALID,0,VALID,23.8787,VALID,360,VALID,1.02969,
2012-03-13, 00:27:04,VALID,1004.46,VALID,0,VALID,94.2014,VALID,0,VALID,23.8769,VALID,350,VALID,0.875,
2012-03-13, 00:28:04,VALID,1004.44,VALID,0,VALID,94.2319,VALID,0,VALID,23.8769,VALID,14,VALID,0.471484,
2012-03-13, 00:29:04,VALID,1004.44,VALID,0,VALID,94.209,VALID,0,VALID,23.8787,VALID,342,VALID,0.7,
2012-03-13, 00:30:04,VALID,1004.43,VALID,0,VALID,94.209,VALID,0,VALID,23.8769,VALID,358,VALID,0.919141,
2012-03-13, 00:31:04,VALID,1004.41,VALID,0,VALID,94.1938,VALID,0,VALID,23.8769,VALID,358,VALID,1.53516,
2012-03-13, 00:32:04,VALID,1004.4,VALID,0,VALID,94.1862,VALID,0,VALID,23.8769,VALID,340,VALID,1.00469,
2012-03-13, 00:33:04,VALID,1004.39,VALID,0,VALID,94.1862,VALID,0,VALID,23.9177,VALID,358,VALID,1.14102,
2012-03-13, 00:34:04,VALID,1004.4,VALID,0,VALID,94.1556,VALID,0,VALID,23.8769,VALID,5,VALID,1.26094,
2012-03-13, 00:35:04,VALID,1004.43,VALID,0,VALID,94.1251,VALID,0,VALID,23.8964,VALID,2,VALID,0.754687,
2012-03-13, 00:36:04,VALID,1004.41,VALID,0,VALID,94.1251,VALID,0,VALID,23.8964,VALID,6,VALID,1.18867,
2012-03-13, 00:37:04,VALID,1004.39,VALID,0,VALID,94.1099,VALID,0,VALID,23.9159,VALID,356,VALID,1.03672,
2012-03-13, 00:38:04,VALID,1004.39,VALID,0,VALID,94.1099,VALID,0,VALID,23.9177,VALID,2,VALID,0.459766,
2012-03-13, 00:39:04,VALID,1004.37,VALID,0,VALID,94.0488,VALID,0.0815089,VALID,23.8964,VALID,10,VALID,1.42969,
2012-03-13, 00:40:04,VALID,1004.35,VALID,0,VALID,94.0259,VALID,0,VALID,23.9159,VALID,349,VALID,1.24492,
2012-03-13, 00:41:04,VALID,1004.34,VALID,0,VALID,94.0031,VALID,0,VALID,23.9159,VALID,2,VALID,1.2832,
2012-03-13, 00:42:04,VALID,1004.34,VALID,0,VALID,93.9649,VALID,0,VALID,23.8964,VALID,350,VALID,1.03555,
2012-03-13, 00:43:04,VALID,1004.31,VALID,0,VALID,93.9191,VALID,0,VALID,23.9353,VALID,349,VALID,0.806641,
2012-03-13, 00:44:04,VALID,1004.31,VALID,0,VALID,93.8963,VALID,0,VALID,23.9159,VALID,11,VALID,1.68828,
2012-03-13, 00:45:04,VALID,1004.33,VALID,0,VALID,93.8505,VALID,0,VALID,23.9159,VALID,10,VALID,2.35742,
2012-03-13, 00:46:04,VALID,1004.33,VALID,0,VALID,93.8429,VALID,0,VALID,23.9353,VALID,23,VALID,1.03359,
2012-03-13, 00:47:04,VALID,1004.3,VALID,0,VALID,93.8429,VALID,0,VALID,23.9159,VALID,358,VALID,2.13164,
2012-03-13, 00:48:04,VALID,1004.32,VALID,0,VALID,93.8276,VALID,0,VALID,23.9353,VALID,28,VALID,1.03359,
2012-03-13, 00:49:04,VALID,1004.32,VALID,0,VALID,93.7589,VALID,0,VALID,23.9353,VALID,7,VALID,1.20547,
2012-03-13, 00:50:04,VALID,1004.28,VALID,0,VALID,93.6292,VALID,0,VALID,23.9159,VALID,352,VALID,2.01836,
2012-03-13, 00:51:04,VALID,1004.29,VALID,0,VALID,93.5911,VALID,0,VALID,23.914,VALID,353,VALID,1.29609,
2012-03-13, 00:52:04,VALID,1004.25,VALID,0,VALID,93.5911,VALID,0,VALID,23.9548,VALID,357,VALID,0.789453,
2012-03-13, 00:53:04,VALID,1004.24,VALID,0,VALID,93.6292,VALID,0,VALID,23.9353,VALID,354,VALID,0.690625,
2012-03-13, 00:54:04,VALID,1004.23,VALID,0,VALID,93.6292,VALID,0.0815089,VALID,23.9761,VALID,358,VALID,1.07773,
2012-03-13, 00:55:04,VALID,1004.19,VALID,0,VALID,93.6598,VALID,0,VALID,23.9371,VALID,11,VALID,1.15937,
2012-03-13, 00:56:04,VALID,1004.16,VALID,0,VALID,93.6521,VALID,0.0815089,VALID,23.9371,VALID,2,VALID,1.2918,
2012-03-13, 00:57:04,VALID,1004.15,VALID,0,VALID,93.614,VALID,0,VALID,23.8964,VALID,353,VALID,1.57891,
2012-03-13, 00:58:04,VALID,1004.11,VALID,0,VALID,93.5987,VALID,0,VALID,23.9371,VALID,347,VALID,1.58633,
2012-03-13, 00:59:04,VALID,1004.12,VALID,0,VALID,93.5606,VALID,0,VALID,23.9159,VALID,356,VALID,1.63594,
2012-03-13, 01:00:04,VALID,1004.1,VALID,0,VALID,93.5682,VALID,0,VALID,23.9371,VALID,18,VALID,1.13398,
2012-03-13, 01:01:04,VALID,1004.11,VALID,0,VALID,93.5682,VALID,0,VALID,23.9353,VALID,17,VALID,1.40977,
2012-03-13, 01:02:04,VALID,1004.12,VALID,0,VALID,93.5987,VALID,0,VALID,23.9159,VALID,356,VALID,1.03711,
2012-03-13, 01:03:04,VALID,1004.08,VALID,0,VALID,93.6292,VALID,0,VALID,23.9371,VALID,359,VALID,0.794531,
2012-03-13, 01:04:04,VALID,1004.07,VALID,0,VALID,93.6216,VALID,0,VALID,23.9177,VALID,16,VALID,1.30078,
2012-03-13, 01:05:04,VALID,1004.04,VALID,0,VALID,93.6598,VALID,0,VALID,23.8964,VALID,3,VALID,0.884375,
2012-03-13, 01:06:04,VALID,1004.05,VALID,0,VALID,93.614,VALID,0,VALID,23.9177,VALID,357,VALID,1.47695,
2012-03-13, 01:07:04,VALID,1004.02,VALID,0,VALID,93.614,VALID,0,VALID,23.8964,VALID,351,VALID,1.1543,
2012-03-13, 01:08:04,VALID,1003.98,VALID,0,VALID,93.5987,VALID,0,VALID,23.9371,VALID,360,VALID,0.767578,
2012-03-13, 01:09:04,VALID,1003.98,VALID,0,VALID,93.5758,VALID,0,VALID,23.8964,VALID,13,VALID,1.31133,
2012-03-13, 01:10:04,VALID,1003.95,VALID,0,VALID,93.5148,VALID,0,VALID,23.8964,VALID,16,VALID,1.16445,
2012-03-13, 01:11:04,VALID,1003.95,VALID,0,VALID,93.4996,VALID,0,VALID,23.9159,VALID,355,VALID,1.67422,
2012-03-13, 01:12:04,VALID,1003.93,VALID,0,VALID,93.4843,VALID,0,VALID,23.9177,VALID,355,VALID,0.733594,
2012-03-13, 01:13:04,VALID,1003.92,VALID,0.5,VALID,93.5072,VALID,0,VALID,23.8769,VALID,9,VALID,1.05391,
2012-03-13, 01:14:04,VALID,1003.93,VALID,0,VALID,93.5148,VALID,0,VALID,23.8982,VALID,360,VALID,0.812109,
2012-03-13, 01:15:04,VALID,1003.9,VALID,0,VALID,93.5224,VALID,0,VALID,23.8982,VALID,346,VALID,0.927734,
2012-03-13, 01:16:04,VALID,1003.88,VALID,0,VALID,93.5453,VALID,0,VALID,23.8982,VALID,4,VALID,0.889063,
2012-03-13, 01:17:04,VALID,1003.88,VALID,0,VALID,93.5682,VALID,0,VALID,23.8575,VALID,344,VALID,1.01367,
2012-03-13, 01:18:04,VALID,1003.83,VALID,0,VALID,93.5224,VALID,0,VALID,23.838,VALID,12,VALID,1.43828,
2012-03-13, 01:19:04,VALID,1003.82,VALID,0,VALID,93.469,VALID,0,VALID,23.8575,VALID,360,VALID,1.76914,
2012-03-13, 01:20:04,VALID,1003.82,VALID,0,VALID,93.3851,VALID,0,VALID,23.838,VALID,9,VALID,1.61055,
2012-03-13, 01:21:04,VALID,1003.79,VALID,0,VALID,93.3394,VALID,0,VALID,23.8787,VALID,12,VALID,0.916016,
2012-03-13, 01:22:04,VALID,1003.8,VALID,0,VALID,93.2402,VALID,0,VALID,23.8575,VALID,359,VALID,1.71641,
2012-03-13, 01:23:04,VALID,1003.73,VALID,0,VALID,93.1639,VALID,0,VALID,23.838,VALID,36,VALID,1.50117,
2012-03-13, 01:24:04,VALID,1003.75,VALID,0,VALID,93.1868,VALID,0,VALID,23.8787,VALID,356,VALID,1.24648,
2012-03-13, 01:25:04,VALID,1003.7,VALID,0,VALID,93.1257,VALID,0,VALID,23.8593,VALID,349,VALID,1.80156,
2012-03-13, 01:26:04,VALID,1003.71,VALID,0,VALID,93.0876,VALID,0,VALID,23.838,VALID,16,VALID,1.63828,
2012-03-13, 01:27:04,VALID,1003.69,VALID,0,VALID,93.141,VALID,0,VALID,23.8787,VALID,346,VALID,0.934375,
2012-03-13, 01:28:04,VALID,1003.67,VALID,0,VALID,93.1029,VALID,0,VALID,23.8398,VALID,323,VALID,0.6375,
2012-03-13, 01:29:04,VALID,1003.66,VALID,0,VALID,93.1486,VALID,0,VALID,23.838,VALID,18,VALID,0.860937,
2012-03-13, 01:30:04,VALID,1003.67,VALID,0,VALID,93.1791,VALID,0,VALID,23.838,VALID,356,VALID,0.695313,
2012-03-13, 01:31:04,VALID,1003.66,VALID,0.5,VALID,93.2402,VALID,0,VALID,23.8398,VALID,5,VALID,0,
2012-03-13, 01:32:04,VALID,1003.65,VALID,0,VALID,93.2936,VALID,0,VALID,23.8203,VALID,10,VALID,0.541406,
2012-03-13, 01:33:04,VALID,1003.63,VALID,0,VALID,93.3165,VALID,0,VALID,23.8203,VALID,15,VALID,0.843359,
2012-03-13, 01:34:04,VALID,1003.64,VALID,0,VALID,93.2783,VALID,0,VALID,23.8009,VALID,15,VALID,1.19883,
2012-03-13, 01:35:04,VALID,1003.6,VALID,0,VALID,93.2859,VALID,0,VALID,23.7991,VALID,2,VALID,0.705078,
2012-03-13, 01:36:04,VALID,1003.59,VALID,0,VALID,93.2173,VALID,0,VALID,23.7796,VALID,355,VALID,1.07656,
2012-03-13, 01:37:04,VALID,1003.61,VALID,0,VALID,93.2936,VALID,0,VALID,23.7991,VALID,24,VALID,0.425391,
2012-03-13, 01:38:04,VALID,1003.56,VALID,0,VALID,93.3241,VALID,0,VALID,23.7991,VALID,10,VALID,0.418359,
2012-03-13, 01:39:04,VALID,1003.57,VALID,0,VALID,93.2783,VALID,0,VALID,23.7601,VALID,347,VALID,1.08438,
2012-03-13, 01:40:04,VALID,1003.57,VALID,0,VALID,93.2249,VALID,0,VALID,23.7601,VALID,359,VALID,1.23867,
2012-03-13, 01:41:04,VALID,1003.52,VALID,0,VALID,93.0876,VALID,0,VALID,23.7619,VALID,343,VALID,1.40859,
2012-03-13, 01:42:04,VALID,1003.51,VALID,0,VALID,93.0189,VALID,0,VALID,23.7814,VALID,339,VALID,1.26484,
2012-03-13, 01:43:04,VALID,1003.5,VALID,0,VALID,92.9426,VALID,0,VALID,23.7796,VALID,351,VALID,1.74258,
2012-03-13, 01:44:04,VALID,1003.49,VALID,0,VALID,92.9274,VALID,0,VALID,23.8009,VALID,339,VALID,1.18906,
2012-03-13, 01:45:04,VALID,1003.46,VALID,0,VALID,92.8435,VALID,0,VALID,23.7601,VALID,340,VALID,1.77305,
2012-03-13, 01:46:04,VALID,1003.49,VALID,0,VALID,92.8587,VALID,0,VALID,23.8009,VALID,3,VALID,1.11484,
2012-03-13, 01:47:04,VALID,1003.47,VALID,0,VALID,92.9045,VALID,0,VALID,23.7796,VALID,356,VALID,0.822656,
2012-03-13, 01:48:04,VALID,1003.45,VALID,0,VALID,92.8969,VALID,0,VALID,23.7814,VALID,339,VALID,1.21641,
2012-03-13, 01:49:04,VALID,1003.44,VALID,0,VALID,92.9045,VALID,0,VALID,23.7619,VALID,346,VALID,1.8875,
2012-03-13, 01:50:04,VALID,1003.42,VALID,0,VALID,92.9579,VALID,0,VALID,23.7619,VALID,350,VALID,0.971484,
2012-03-13, 01:51:04,VALID,1003.43,VALID,0,VALID,92.9655,VALID,0,VALID,23.7407,VALID,344,VALID,1.45898,
2012-03-13, 01:52:04,VALID,1003.42,VALID,0,VALID,92.9961,VALID,0,VALID,23.7425,VALID,347,VALID,1.31133,
2012-03-13, 01:53:04,VALID,1003.41,VALID,0,VALID,93.0037,VALID,0,VALID,23.7407,VALID,338,VALID,1.06133,
2012-03-13, 01:54:04,VALID,1003.41,VALID,0,VALID,92.9884,VALID,0,VALID,23.7425,VALID,346,VALID,1.37266,
2012-03-13, 01:55:04,VALID,1003.41,VALID,0,VALID,92.935,VALID,0,VALID,23.7425,VALID,352,VALID,1.43555,
2012-03-13, 01:56:04,VALID,1003.37,VALID,0,VALID,92.9121,VALID,0,VALID,23.7017,VALID,355,VALID,1.00703,
2012-03-13, 01:57:04,VALID,1003.38,VALID,0,VALID,92.8969,VALID,0,VALID,23.6823,VALID,348,VALID,1.67344,
2012-03-13, 01:58:04,VALID,1003.37,VALID,0,VALID,92.9961,VALID,0,VALID,23.7017,VALID,338,VALID,0.914063,
2012-03-13, 01:59:04,VALID,1003.35,VALID,0,VALID,93.0418,VALID,0,VALID,23.7035,VALID,357,VALID,0.966797,
2012-03-13, 02:00:04,VALID,1003.34,VALID,0,VALID,93.0647,VALID,0,VALID,23.7035,VALID,332,VALID,0.555469,
2012-03-13, 02:01:04,VALID,1003.34,VALID,0,VALID,93.0647,VALID,0,VALID,23.6628,VALID,360,VALID,1.69414,
2012-03-13, 02:02:04,VALID,1003.3,VALID,0,VALID,93.0266,VALID,0,VALID,23.7035,VALID,350,VALID,1.57695,
2012-03-13, 02:03:04,VALID,1003.29,VALID,0,VALID,93.0418,VALID,0,VALID,23.6823,VALID,347,VALID,0.579297,
2012-03-13, 02:04:04,VALID,1003.27,VALID,0,VALID,93.0495,VALID,0,VALID,23.6841,VALID,346,VALID,1.17734,
2012-03-13, 02:05:04,VALID,1003.22,VALID,0,VALID,93.08,VALID,0,VALID,23.7035,VALID,296,VALID,0.707031,
2012-03-13, 02:06:04,VALID,1003.24,VALID,0,VALID,93.1334,VALID,0,VALID,23.6823,VALID,352,VALID,0.316797,
2012-03-13, 02:07:04,VALID,1003.24,VALID,0,VALID,93.2325,VALID,0,VALID,23.6823,VALID,351,VALID,0.372266,
2012-03-13, 02:08:04,VALID,1003.21,VALID,0,VALID,93.3241,VALID,0,VALID,23.6628,VALID,351,VALID,0.0894531,
2012-03-13, 02:09:04,VALID,1003.23,VALID,0,VALID,93.3546,VALID,0,VALID,23.6628,VALID,360,VALID,0.219141,
2012-03-13, 02:10:04,VALID,1003.2,VALID,0,VALID,93.4309,VALID,0,VALID,23.6628,VALID,360,VALID,0.248437,
2012-03-13, 02:11:04,VALID,1003.22,VALID,0,VALID,93.4767,VALID,0,VALID,23.6434,VALID,360,VALID,0,
2012-03-13, 02:12:04,VALID,1003.22,VALID,0,VALID,93.5301,VALID,0.0815089,VALID,23.6628,VALID,360,VALID,0,
2012-03-13, 02:13:04,VALID,1003.2,VALID,0,VALID,93.5987,VALID,0,VALID,23.6646,VALID,360,VALID,0,
2012-03-13, 02:14:04,VALID,1003.2,VALID,0.5,VALID,93.6674,VALID,0,VALID,23.6434,VALID,359,VALID,0.117578,
2012-03-13, 02:15:04,VALID,1003.21,VALID,0,VALID,93.6979,VALID,0,VALID,23.6434,VALID,318,VALID,0,
2012-03-13, 02:16:04,VALID,1003.18,VALID,0,VALID,93.7284,VALID,0,VALID,23.6239,VALID,354,VALID,0.626562,
2012-03-13, 02:17:04,VALID,1003.2,VALID,0,VALID,93.7666,VALID,0,VALID,23.6239,VALID,296,VALID,0.0875,
2012-03-13, 02:18:04,VALID,1003.19,VALID,0,VALID,93.7589,VALID,0,VALID,23.6044,VALID,355,VALID,0.430469,
2012-03-13, 02:19:04,VALID,1003.17,VALID,0,VALID,93.8047,VALID,0,VALID,23.6044,VALID,353,VALID,0.197656,
2012-03-13, 02:20:04,VALID,1003.17,VALID,0,VALID,93.8123,VALID,0,VALID,23.6044,VALID,352,VALID,0.688672,
2012-03-13, 02:21:04,VALID,1003.18,VALID,0,VALID,93.82,VALID,0,VALID,23.585,VALID,359,VALID,0.219531,
2012-03-13, 02:22:04,VALID,1003.15,VALID,0,VALID,93.8429,VALID,0,VALID,23.6062,VALID,12,VALID,0.238281,
2012-03-13, 02:23:04,VALID,1003.13,VALID,0,VALID,93.8734,VALID,0,VALID,23.6044,VALID,351,VALID,0.473437,
2012-03-13, 02:24:04,VALID,1003.14,VALID,0,VALID,93.8963,VALID,0,VALID,23.585,VALID,350,VALID,0.440234,
2012-03-13, 02:25:04,VALID,1003.17,VALID,0,VALID,93.8657,VALID,0,VALID,23.5655,VALID,348,VALID,0.522266,
2012-03-13, 02:26:04,VALID,1003.14,VALID,0,VALID,93.881,VALID,0,VALID,23.585,VALID,342,VALID,0.854297,
2012-03-13, 02:27:04,VALID,1003.13,VALID,0,VALID,93.9039,VALID,0,VALID,23.5868,VALID,335,VALID,0.289063,
2012-03-13, 02:28:04,VALID,1003.14,VALID,0,VALID,93.9191,VALID,0,VALID,23.585,VALID,279,VALID,0.171875,
2012-03-13, 02:29:04,VALID,1003.12,VALID,0,VALID,93.9497,VALID,0,VALID,23.5655,VALID,324,VALID,0.294531,
2012-03-13, 02:30:04,VALID,1003.13,VALID,0,VALID,93.9344,VALID,0,VALID,23.5655,VALID,358,VALID,0.194141,
2012-03-13, 02:31:04,VALID,1003.13,VALID,0,VALID,93.9573,VALID,0,VALID,23.546,VALID,357,VALID,0,
2012-03-13, 02:32:04,VALID,1003.14,VALID,0,VALID,94.0031,VALID,0,VALID,23.5655,VALID,252,VALID,0.464844,
2012-03-13, 02:33:04,VALID,1003.13,VALID,0,VALID,94.0107,VALID,0,VALID,23.5655,VALID,306,VALID,0.192578,
2012-03-13, 02:34:04,VALID,1003.15,VALID,0,VALID,94.0183,VALID,0,VALID,23.5655,VALID,340,VALID,0.00585938,
2012-03-13, 02:35:04,VALID,1003.16,VALID,0,VALID,94.0488,VALID,0,VALID,23.5868,VALID,340,VALID,0,
2012-03-13, 02:36:04,VALID,1003.14,VALID,0,VALID,94.0336,VALID,0,VALID,23.5868,VALID,354,VALID,0.239063,
2012-03-13, 02:37:04,VALID,1003.16,VALID,0,VALID,94.0259,VALID,0,VALID,23.5655,VALID,349,VALID,0.861328,
2012-03-13, 02:38:04,VALID,1003.17,VALID,0,VALID,94.0641,VALID,0,VALID,23.546,VALID,350,VALID,0.799219,
2012-03-13, 02:39:04,VALID,1003.19,VALID,0,VALID,94.0717,VALID,0,VALID,23.546,VALID,347,VALID,1.19258,
2012-03-13, 02:40:04,VALID,1003.2,VALID,0,VALID,94.087,VALID,0,VALID,23.5655,VALID,350,VALID,1.12656,
2012-03-13, 02:41:04,VALID,1003.22,VALID,0,VALID,94.0794,VALID,0,VALID,23.546,VALID,344,VALID,0.741797,
2012-03-13, 02:42:04,VALID,1003.2,VALID,0,VALID,94.1175,VALID,0,VALID,23.5655,VALID,343,VALID,0.785156,
2012-03-13, 02:43:04,VALID,1003.21,VALID,0,VALID,94.1404,VALID,0,VALID,23.546,VALID,341,VALID,0.876172,
2012-03-13, 02:44:04,VALID,1003.24,VALID,0,VALID,94.1862,VALID,0,VALID,23.546,VALID,336,VALID,0.334375,
2012-03-13, 02:45:04,VALID,1003.23,VALID,0,VALID,94.1862,VALID,0,VALID,23.5655,VALID,349,VALID,0.278125,
2012-03-13, 02:46:04,VALID,1003.27,VALID,0,VALID,94.2167,VALID,0,VALID,23.5655,VALID,360,VALID,0.487109,
2012-03-13, 02:47:04,VALID,1003.27,VALID,0,VALID,94.209,VALID,0,VALID,23.5868,VALID,344,VALID,0.620313,
2012-03-13, 02:48:04,VALID,1003.28,VALID,0,VALID,94.1862,VALID,0,VALID,23.5655,VALID,351,VALID,0.883594,
2012-03-13, 02:49:04,VALID,1003.31,VALID,0,VALID,94.2167,VALID,0,VALID,23.5655,VALID,353,VALID,0.671094,
2012-03-13, 02:50:04,VALID,1003.33,VALID,0,VALID,94.1785,VALID,0,VALID,23.5655,VALID,356,VALID,0.591406,
2012-03-13, 02:51:04,VALID,1003.37,VALID,0,VALID,94.1404,VALID,0,VALID,23.5655,VALID,5,VALID,0,
2012-03-13, 02:52:04,VALID,1003.39,VALID,0,VALID,94.1404,VALID,0,VALID,23.5443,VALID,5,VALID,0,
2012-03-13, 02:53:04,VALID,1003.4,VALID,0,VALID,94.1785,VALID,0,VALID,23.5673,VALID,5,VALID,0,
2012-03-13, 02:54:04,VALID,1003.4,VALID,0,VALID,94.1785,VALID,0,VALID,23.546,VALID,5,VALID,0,
2012-03-13, 02:55:04,VALID,1003.41,VALID,0,VALID,94.1556,VALID,0,VALID,23.5266,VALID,5,VALID,0,
2012-03-13, 02:56:04,VALID,1003.41,VALID,0,VALID,94.1633,VALID,0,VALID,23.5673,VALID,5,VALID,0,
2012-03-13, 02:57:04,VALID,1003.44,VALID,0,VALID,94.1709,VALID,0,VALID,23.5478,VALID,5,VALID,0,
2012-03-13, 02:58:04,VALID,1003.42,VALID,0,VALID,94.1785,VALID,0,VALID,23.5266,VALID,5,VALID,0,
2012-03-13, 02:59:04,VALID,1003.45,VALID,0,VALID,94.2167,VALID,0,VALID,23.5266,VALID,61,VALID,0.570703,
2012-03-13, 03:00:04,VALID,1003.44,VALID,0,VALID,94.2701,VALID,0,VALID,23.5266,VALID,64,VALID,0.515234,
2012-03-13, 03:01:04,VALID,1003.44,VALID,0,VALID,94.3082,VALID,0,VALID,23.5266,VALID,64,VALID,0.353906,
2012-03-13, 03:02:04,VALID,1003.44,VALID,0,VALID,94.293,VALID,0,VALID,23.5089,VALID,64,VALID,0.453906,
2012-03-13, 03:03:04,VALID,1003.43,VALID,0,VALID,94.3082,VALID,0,VALID,23.4877,VALID,64,VALID,0.388281,
2012-03-13, 03:04:04,VALID,1003.44,VALID,0,VALID,94.293,VALID,0,VALID,23.47,VALID,89,VALID,0.595703,
2012-03-13, 03:05:04,VALID,1003.43,VALID,0,VALID,94.2701,VALID,0,VALID,23.4682,VALID,103,VALID,0.579687,
2012-03-13, 03:06:04,VALID,1003.43,VALID,0,VALID,94.3082,VALID,0,VALID,23.4487,VALID,107,VALID,0.403906,
2012-03-13, 03:07:04,VALID,1003.45,VALID,0,VALID,94.3006,VALID,0,VALID,23.47,VALID,107,VALID,0,
2012-03-13, 03:08:04,VALID,1003.43,VALID,0,VALID,94.3082,VALID,0,VALID,23.4293,VALID,107,VALID,0,
2012-03-13, 03:09:04,VALID,1003.42,VALID,0,VALID,94.354,VALID,0,VALID,23.47,VALID,107,VALID,0,
2012-03-13, 03:10:04,VALID,1003.41,VALID,0,VALID,94.3921,VALID,0,VALID,23.4293,VALID,107,VALID,0,
2012-03-13, 03:11:04,VALID,1003.45,VALID,0,VALID,94.4074,VALID,0,VALID,23.47,VALID,67,VALID,0,
2012-03-13, 03:12:04,VALID,1003.45,VALID,0,VALID,94.4227,VALID,0,VALID,23.4505,VALID,67,VALID,0,
2012-03-13, 03:13:04,VALID,1003.43,VALID,0,VALID,94.4379,VALID,0,VALID,23.4293,VALID,67,VALID,0,
2012-03-13, 03:14:04,VALID,1003.44,VALID,0,VALID,94.4379,VALID,0,VALID,23.4293,VALID,67,VALID,0,
2012-03-13, 03:15:04,VALID,1003.43,VALID,0,VALID,94.4684,VALID,0,VALID,23.4098,VALID,67,VALID,0,
2012-03-13, 03:16:04,VALID,1003.41,VALID,0,VALID,94.4761,VALID,0,VALID,23.4311,VALID,67,VALID,0,
2012-03-13, 03:17:04,VALID,1003.4,VALID,0,VALID,94.5142,VALID,0,VALID,23.4098,VALID,67,VALID,0,
2012-03-13, 03:18:04,VALID,1003.39,VALID,0,VALID,94.5066,VALID,0,VALID,23.4311,VALID,67,VALID,0,
2012-03-13, 03:19:04,VALID,1003.38,VALID,0,VALID,94.4989,VALID,0,VALID,23.3904,VALID,67,VALID,0,
2012-03-13, 03:20:04,VALID,1003.36,VALID,0,VALID,94.5295,VALID,0,VALID,23.3904,VALID,67,VALID,0,
2012-03-13, 03:21:04,VALID,1003.38,VALID,0,VALID,94.5905,VALID,0,VALID,23.3904,VALID,67,VALID,0,
2012-03-13, 03:22:04,VALID,1003.33,VALID,0,VALID,94.5981,VALID,0,VALID,23.4311,VALID,67,VALID,0,
2012-03-13, 03:23:04,VALID,1003.36,VALID,0,VALID,94.6363,VALID,0,VALID,23.4311,VALID,67,VALID,0,
2012-03-13, 03:24:04,VALID,1003.36,VALID,0,VALID,94.6591,VALID,0,VALID,23.4311,VALID,67,VALID,0,
2012-03-13, 03:25:04,VALID,1003.34,VALID,0,VALID,94.6668,VALID,0.0815089,VALID,23.4487,VALID,67,VALID,0,
2012-03-13, 03:26:04,VALID,1003.37,VALID,0,VALID,94.6515,VALID,0,VALID,23.4293,VALID,67,VALID,0,
2012-03-13, 03:27:04,VALID,1003.39,VALID,0,VALID,94.6439,VALID,0,VALID,23.4293,VALID,67,VALID,0,
2012-03-13, 03:28:04,VALID,1003.35,VALID,0,VALID,94.621,VALID,0,VALID,23.4293,VALID,67,VALID,0,
2012-03-13, 03:29:04,VALID,1003.38,VALID,0,VALID,94.6439,VALID,0,VALID,23.4293,VALID,67,VALID,0,
2012-03-13, 03:30:04,VALID,1003.36,VALID,0,VALID,94.6591,VALID,0,VALID,23.4311,VALID,67,VALID,0,
2012-03-13, 03:31:04,VALID,1003.35,VALID,0,VALID,94.6744,VALID,0,VALID,23.4505,VALID,67,VALID,0,
2012-03-13, 03:32:04,VALID,1003.36,VALID,0,VALID,94.6744,VALID,0,VALID,23.4293,VALID,67,VALID,0,
2012-03-13, 03:33:04,VALID,1003.35,VALID,0,VALID,94.6744,VALID,0,VALID,23.4098,VALID,67,VALID,0,
2012-03-13, 03:34:04,VALID,1003.33,VALID,0,VALID,94.6973,VALID,0,VALID,23.4098,VALID,354,VALID,0.06875,
2012-03-13, 03:35:04,VALID,1003.33,VALID,0,VALID,94.7278,VALID,0,VALID,23.4293,VALID,354,VALID,0.0203125,
2012-03-13, 03:36:04,VALID,1003.35,VALID,0,VALID,94.7354,VALID,0,VALID,23.4293,VALID,354,VALID,0.356641,
2012-03-13, 03:37:04,VALID,1003.35,VALID,0,VALID,94.7507,VALID,0,VALID,23.4505,VALID,354,VALID,0.226172,
2012-03-13, 03:38:04,VALID,1003.37,VALID,0,VALID,94.7202,VALID,0,VALID,23.4098,VALID,354,VALID,0.392188,
2012-03-13, 03:39:04,VALID,1003.37,VALID,0,VALID,94.7125,VALID,0,VALID,23.4098,VALID,354,VALID,0.2625,
2012-03-13, 03:40:04,VALID,1003.37,VALID,0,VALID,94.6973,VALID,0,VALID,23.4293,VALID,354,VALID,0.0886719,
2012-03-13, 03:41:04,VALID,1003.38,VALID,0,VALID,94.7049,VALID,0,VALID,23.4098,VALID,354,VALID,0.302344,
2012-03-13, 03:42:04,VALID,1003.39,VALID,0,VALID,94.7431,VALID,0,VALID,23.4098,VALID,354,VALID,0,
2012-03-13, 03:43:04,VALID,1003.38,VALID,0,VALID,94.7278,VALID,0,VALID,23.4098,VALID,354,VALID,0,
2012-03-13, 03:44:04,VALID,1003.4,VALID,0,VALID,94.7431,VALID,0,VALID,23.4098,VALID,354,VALID,0,
2012-03-13, 03:45:04,VALID,1003.41,VALID,0,VALID,94.766,VALID,0.0815089,VALID,23.4293,VALID,354,VALID,0,
2012-03-13, 03:46:04,VALID,1003.45,VALID,0,VALID,94.7507,VALID,0,VALID,23.4098,VALID,354,VALID,0,
2012-03-13, 03:47:04,VALID,1003.44,VALID,0,VALID,94.7888,VALID,0,VALID,23.4505,VALID,354,VALID,0,
2012-03-13, 03:48:04,VALID,1003.46,VALID,0,VALID,94.7736,VALID,0,VALID,23.4293,VALID,354,VALID,0,